Tracking 31027 objects as of 19-Jul-2025
HD Live streaming from Space Station
objects crossing your sky now

SL-14 DEB

Track SL-14 DEB now!
10-day predictions


NORAD ID: 45277
Int'l Code: 1991-056P
Perigee: 1,056.6 km
Apogee: 1,200.4 km
Inclination: 82.6 °
Period: 107.7 minutes
Semi major axis: 7499 km
RCS: Unknown
Launch date: August 15, 1991
Source: Commonwealth of Independent States (former USSR) (CIS)
Launch site: PLESETSK MISSILE AND SPACE COMPLEX (PKMTR)

Note: This is SATELLITE DEBRIS
Your satellite tracking list
FENGYUN 1C DEB
Track 1 satellite(s)




NASA's NSSDC Master Catalog

Two Line Element Set (TLE):
1 45277U 91056P   25199.87866808  .00002875  00000-0  53867-2 0  9996
2 45277  82.5566 353.9380 0095859 354.7134   5.2978 13.36768391261965
Source of the keplerian elements: AFSPC